Showing default

YAOGAN-39 04B, 58143

Orbit data source: Space-Track

YAOGAN-39 04B, 58143 is a payload satellite owned by PLA GAD (CN) in LEO that was launched on Mon, 23 Oct 2023 UTC via a CHANG ZHENG 2D launch vehicle from the Xichang Space Center, China (XSC). Payloads include a variety of satellites, spacecraft, and rockets equipped with specific instruments for various scientific and technological missions. These include communications satellites like Starlink; space stations such as the ISS; scientific satellites like the Hubble; Earth observation satellites from companies like Planet Labs, Umbra, and HawkEye 360; GPS; miniature CubeSats for education and research; and military/defense satellites.

Loading next visibility...
YAOGAN-39 04B details
Identifier
58143, 2023-163C
Orbit
LEO
Last TLE update5 hours ago
Origin
Flag of CNPLA GAD (CN / PRC)
ManufacturerSAST
MissionOperational Defense Sigint
Bus & MotorUnknown
Mass~300 kg wet, ~300 kg dry
Launch date (UTC)
2023-10-23 (1 year ago)
Launch vehicle
CHANG ZHENG 2D
Launch site
Xichang Space Center, China (XSC)
Object type
Payload
Rocket body
Debris
Shape & HBRBox + 2 Pan, 5 m
Radar Cross Section11.063 m², Large (>1 m²)

Expand to show TLE details & history

TLE from 5 hours ago
0 YAOGAN-39 04B
1 58143U 23163C   24356.47037852  .00014248  00000-0  59339-3 0  9993
2 58143  34.9944 157.8280 0011215 275.5354  84.4081 15.22854355 64777
Epoch: 2024-12-21T11:17Z
Definitive object data (Epoch: 2024-12-21T11:17:20.704Z)
Latitude-0.00002°
Longitude-102.02937°
Altitude495.4 km
Speed7.62 km/s
True Right ascension10h 31m 18s
True Declination0° 00' 00"
Sunlit
Object was in daylight at TLE epoch
Visualization TLE readout
Latitude15.43684°
Longitude53.46331°
Altitude499.853 km
Speed7.616 km/s
Apparent Right ascension23h 35m 47s
Apparent Declination-17° 02' 10"
Sunlit
Object is in daylight
Visualization observer readout
Local Sidereal Time15:43:04
Azimuth85.588° E
Elevation-32.298°
Doppler factor1
Orbital elements
Apogee altitude508.201 km
Perigee altitude492.772 km
Semi-major axis6,878.624 km
Eccentricity0.0011215
Inclination34.9944°
RAAN157.828°
Arg. of periapsis275.5354°
True anomaly84.53602°
Mean anomaly84.4081°
Eccentric anomaly84.47206°
Mean motion3.80444 °/min
BSTAR0.00059339
Orbital period94.63 mins
Loading maneuver chart data...
Loading historical data...
Loading historical data...
Loading historical data...
Loading historical data...
Loading historical data...
Loading historical data...
Loading historical data...

YAOGAN-39 04B Visibility forecast

Observer location: undefined°, undefined

Span
Click to sort rows by Start time (UTC) header in descending order
Start Az.
Max El. time (UTC)
Max El. Az.
Max El.
End time (UTC)
End Az.
6 mins2024-12-21 17:57:34.414Z249.732° W2024-12-21 18:00:34.414Z184.221° SSW31.109°2024-12-21 18:03:34.414Z121.422° SE
4 mins2024-12-21 19:38:34.414Z227.568° WSW2024-12-21 19:39:34.414Z207.826° SW18.543°2024-12-21 19:42:34.414Z154.957° SSE
5 mins2024-12-22 15:55:34.414Z219.133° SW2024-12-22 15:57:34.414Z161.527° S29.337°2024-12-22 16:00:34.414Z106.978° ESE
|